Regional Weather Roundup
Issued by NWS

Home | Current Version | Previous Version | Graphics & Text | Print | Product List | Glossary On
Versions: 1 2 3 4 5 6 7 8 9 10 11 12 13 14 15 16 17 18 19 20 21 22 23 24 25 26 27 28 29 30 31 32 33 34 35 36 37 38 39 40 41 42 43 44 45 46 47 48 49 50
000
ASUS43 KOAX 262210
RWRNE

WEATHER ROUNDUP FOR NEBRASKA
NATIONAL WEATHER SERVICE OMAHA NE
400 PM CST SUN FEB 26 2017

NOTES: SATELLITE DATA IS BEING USED TO AUGMENT CLOUD COVER ABOVE
       12000 FEET.
       "FAIR" INDICATES FEW OR NO CLOUDS BELOW 12,000 FEET WITH NO
       SIGNIFICANT WEATHER AND/OR OBSTRUCTIONS TO VISIBILITY.

  * THESE STATIONS DO NOT REPORT WEATHER SUCH AS RAIN...SNOW OR FOG.

NEZ001>004-019>022-054>056-262300-
NEBRASKA PANHANDLE

CITY           SKY/WX    TMP DP  RH WIND       PRES   REMARKS
SCOTTSBLUFF    SUNNY     33  15  47 W12       29.82S WCI  24
ALLIANCE       SUNNY     27  15  61 W8        29.81S WCI  19
CHADRON        CLOUDY    26  14  60 SW6       29.83S WCI  19
KIMBALL        SUNNY     33  18  54 SW8       29.80S WCI  26
SIDNEY         SUNNY     35  14  42 SW13      29.82S WCI  26
$$

NEZ057>060-069>072-079>082-262300-
SOUTHWEST NEBRASKA

CITY           SKY/WX    TMP DP  RH WIND       PRES   REMARKS
NORTH PLATTE   SUNNY     39  11  31 NW10      29.88S WCI  32
IMPERIAL       SUNNY     39  10  30 W5        29.87S
LEXINGTON      SUNNY     42  13  31 NW12      29.89R
MCCOOK         SUNNY     44   9  23 NW14      29.89R
OGALLALA       SUNNY     38  13  35 NW14      29.86R WCI  30
$$

NEZ005>010-023>029-035>040-094-262300-
NORTH CENTRAL NEBRASKA

CITY           SKY/WX    TMP DP  RH WIND       PRES   REMARKS
VALENTINE      SUNNY     31  15  52 W14       29.84R WCI  21
AINSWORTH      SUNNY     34  19  55 W12       29.84S WCI  25
BROKEN BOW     SUNNY     37  18  46 W7        29.87R WCI  32
O`NEILL        SUNNY     36  20  54 SW8       29.88S WCI  29
ORD            SUNNY     39  15  37 S6        29.87S WCI  35
THEDFORD       SUNNY     33  17  52 W9        29.86S WCI  25
$$

NEZ041-046>049-061>064-073>077-083>087-262300-
SOUTH CENTRAL NEBRASKA

CITY           SKY/WX    TMP DP  RH WIND       PRES   REMARKS
GRAND ISLAND   SUNNY     44  16  32 NW5       29.90R
AURORA         SUNNY     44  18  35 NW5       29.90R
HASTINGS       SUNNY     45   9  23 W9        29.90R
HEBRON         SUNNY     47  11  23 NW5       29.91R
HOLDREGE       SUNNY     43  10  25 W9        29.88R
KEARNEY *      SUNNY     43  12  28 NW9       29.90S
YORK           SUNNY     41  21  45 CALM      29.91S
$$

NEZ011>018-030>034-042>045-262300-
NORTHEAST NEBRASKA

CITY           SKY/WX    TMP DP  RH WIND       PRES   REMARKS
NORFOLK        SUNNY     36  23  59 SW8       29.90S WCI  30
ALBION         SUNNY     40  20  44 SW3       29.90S
BLAIR          SUNNY     41  24  51 W3        29.93S
FREMONT        SUNNY     41  26  53 W3        29.94R
TEKAMAH        SUNNY     37  25  61 SW5       29.95R WCI  33
WAYNE          SUNNY     37  26  64 SW6       29.91S WCI  32
$$

NEZ050>053-065>068-078-088>093-262300-
SOUTHEAST NEBRASKA

CITY           SKY/WX    TMP DP  RH WIND       PRES   REMARKS
LINCOLN        SUNNY     46  24  42 VRB6      29.94S
OMAHA EPPLEY   MOSUNNY   45  21  38 NE3       29.94R
BEATRICE       SUNNY     49  17  28 N13       29.91S
FALLS CITY     MOSUNNY   51  20  29 W9        29.90S
NEBRASKA CITY  SUNNY     47  15  27 NW9       29.92R
PLATTSMOUTH    SUNNY     45  17  33 NW9       29.92S
$$

NEZ044-045-051>053-067-262300-
OMAHA AREA

CITY           SKY/WX    TMP DP  RH WIND       PRES   REMARKS
OMAHA EPPLEY   MOSUNNY   45  21  38 NE3       29.94R
BLAIR          SUNNY     41  24  51 W3        29.93S
FREMONT        SUNNY     41  26  53 W3        29.94R
MILLARD        SUNNY     45  23  41 CALM      29.94R
OFFUTT AFB     SUNNY     45  20  37 VRB3      29.93S
PLATTSMOUTH    SUNNY     45  17  33 NW9       29.92S
WAHOO          FAIR      42  21  43 CALM      29.93S
$$




USA.gov is the U.S. government's official web portal to all federal, state and local government web resources and services.